Regional Weather Roundup
Issued by NWS

Home | Current Version | Previous Version | Graphics & Text | Print | Product List | Glossary Off
Versions: 1 2 3 4 5 6 7 8 9 10 11 12 13 14 15 16 17 18 19 20 21 22 23 24 25 26 27 28 29 30 31 32 33 34 35 36 37 38 39 40 41 42 43 44 45 46 47 48 49 50

000
ASUS43 KFSD 200902
RWRSD

WEATHER ROUNDUP FOR SOUTH DAKOTA
NATIONAL WEATHER SERVICE SIOUX FALLS SD
400 AM CDT SAT SEP 20 2014

NOTE: "FAIR" INDICATES FEW OR NO CLOUDS BELOW 12,000 FEET WITH NO
SIGNIFICANT WEATHER AND/OR OBSTRUCTIONS TO VISIBILITY.


SDZ001>005-009-010-012>017-201000-
NORTHWEST AND NORTH CENTRAL SOUTH DAKOTA

CITY           SKY/WX    TMP DP  RH WIND       PRES   REMARKS
FAITH            N/A     57  48  72 W13       29.94R
MOBRIDGE       CLEAR     57  53  86 NW8       29.86R
$$

SDZ012>016-024>037-041>051-057-063-072>074-201000-
SOUTHWEST AND SOUTH CENTRAL SOUTH DAKOTA

CITY           SKY/WX    TMP DP  RH WIND       PRES   REMARKS
RAPID CTY ARPT MOCLDY    57  47  69 NW7       30.00F
PIERRE         PTCLDY    59  54  83 NW9       29.88R
CUSTER         PTCLDY    55  40  56 W5        30.12F
ELLSWORTH AFB  PTCLDY    58  48  68 NW7       30.00R
PHILIP         MOCLDY    61  53  75 W12       29.94R
PINE RIDGE     CLEAR     51  48  89 CALM      30.03R
WINNER         CLOUDY    63  55  75 SW6       29.92R
$$

SDZ004>011-016>023-039-040-201000-
NORTHEAST SOUTH DAKOTA

CITY           SKY/WX    TMP DP  RH WIND       PRES   REMARKS
ABERDEEN       CLEAR     55  52  89 W3        29.83R
WATERTOWN      PTCLDY    58  54  86 CALM      29.82R
SISSETON         N/A     60  58  92 NW9       29.78R
$$

SDZ017-020-022-023-036>040-048>070-201000-
SOUTHEAST SOUTH DAKOTA

CITY           SKY/WX    TMP DP  RH WIND       PRES   REMARKS
SIOUX FALLS    MOCLDY    67  56  67 NW7       29.82R THUNDER
HURON          MOCLDY    58  51  78 NW7       29.83R
CHAMBERLAIN    LGT RAIN  64  55  72 NW7       29.89R
MITCHELL       MOCLDY    67  54  63 W8        29.86R
YANKTON        MOCLDY    66  57  72 W10       29.84R
$$

ABBREVIATIONS USED IN REMARKS
   TC - TEMPERATURE IN CELSIUS
  WCI - WIND CHILL INDEX
   HX - HEAT INDEX
  VSB - VISIBILITY



USA.gov is the U.S. government's official web portal to all federal, state and local government web resources and services.